Tucson Davis Monthan, AZ

10:06 AM MST on May 26, 2017 (GMT -0700)
Davis-Monthan Air Force Base

Weather History for KDMA - October, 2013

Change the Weather History Date:

Tuesday, October 1, 2013

  Actual Average Record
Temperature  
Mean Temperature 74 °F -  
Max Temperature 89 °F 90 °F 102 °F (2003)
Min Temperature 59 °F 63 °F 51 °F (1965)
Cooling Degree Days 9    
Growing Degree Days 24 (Base 50)    
Moisture  
Dew Point 32 °F    
Average Humidity 22    
Maximum Humidity 33    
Minimum Humidity 12    
Precipitation  
Precipitation 0.00 in - - ()
Sea Level Pressure  
Sea Level Pressure 29.86 in    
Wind  
Wind Speed 6 mph (SSE)    
Max Wind Speed 10 mph    
Max Gust Speed -    
Visibility 10 miles    
Events      
Averages and records for this station are not official NWS values.
T = Trace of Precipitation, MM = Missing Value Source: NWS Daily Summary

Daily Weather History Graph

Daily Weather History Graph

Search for Another Location

Airport or City:

Trip Planner

Search our weather history database for the weather conditions in past years. The results will help you decide how hot, cold, wet, or windy it might be!

Date:

Astronomy

Oct. 01, 2013 Rise Set
Actual Time 6:17 AM MST 6:07 PM MST
Civil Twilight 5:53 AM MST 6:32 PM MST
Nautical Twilight 5:24 AM MST 7:00 PM MST
Astronomical Twilight 4:56 AM MST 7:29 PM MST
Moon 3:05 AM MST (10/1) 4:05 PM MST (10/1)
Length of Visible Light 12h 39m
Length of Day
11h 50m
Waning Crescent, 11% of the Moon is Illuminated
Oct 1
Waning Crescent
Oct 4
New
Oct 11
First Quarter
Oct 18
Full
Oct 26
Last Quarter

Hourly Weather History & Observations

Time (MST) Temp. Dew Point Humidity Pressure Visibility Wind Dir Wind Speed Gust Speed Precip Events Conditions
12:58 AM 63.7 °F 27.7 °F 26% 29.86 in 10.0 mi ESE 9.2 mph - N/A   Clear
1:58 AM 63.1 °F 28.9 °F 28% 29.86 in 10.0 mi SE 8.1 mph - N/A   Clear
2:58 AM 61.0 °F 28.8 °F 30% 29.85 in 10.0 mi SSE 6.9 mph - N/A   Clear
3:58 AM 60.8 °F 29.5 °F 31% 29.85 in 10.0 mi ESE 4.6 mph - N/A   Clear
4:58 AM 60.3 °F 29.3 °F 31% 29.87 in 10.0 mi SE 6.9 mph - N/A   Clear
5:58 AM 60.1 °F 30.0 °F 32% 29.89 in 10.0 mi ESE 6.9 mph - N/A   Clear
6:58 AM 59.7 °F 30.2 °F 33% 29.91 in 10.0 mi SE 5.8 mph - N/A   Clear
7:58 AM 67.3 °F 31.5 °F 26% 29.91 in 10.0 mi SE 4.6 mph - N/A   Clear
8:58 AM 72.5 °F 32.0 °F 23% 29.93 in 10.0 mi SSE 5.8 mph - N/A   Clear
9:58 AM 79.5 °F 30.9 °F 17% 29.92 in 10.0 mi SSE 4.6 mph - N/A   Clear
10:58 AM 82.2 °F 30.7 °F 15% 29.91 in 10.0 mi NNW 2.3 mph - N/A   Clear
11:58 AM 85.1 °F 29.5 °F 13% 29.90 in 10.0 mi Variable 3.5 mph - N/A   Clear
12:55 PM 89.6 °F 33.8 °F 14% 29.94 in 10.0 mi NW 5.8 mph - N/A   Clear
1:58 PM 87.8 °F 31.8 °F 13% 29.84 in 10.0 mi South 4.6 mph - N/A   Clear
2:58 PM 89.4 °F 31.1 °F 12% 29.82 in 10.0 mi NNE 2.3 mph - N/A   Clear
3:58 PM 89.6 °F 33.3 °F 13% 29.81 in 10.0 mi Variable 1.2 mph - N/A   Clear
4:58 PM 89.1 °F 34.3 °F 14% 29.80 in 10.0 mi East 4.6 mph - N/A   Clear
5:58 PM 87.4 °F 32.9 °F 14% 29.80 in 10.0 mi NNW 10.4 mph - N/A   Clear
6:58 PM 83.7 °F 33.4 °F 16% 29.81 in 10.0 mi NNW 5.8 mph - N/A   Clear
7:58 PM 79.2 °F 35.2 °F 20% 29.83 in 10.0 mi West 5.8 mph - N/A   Clear
8:58 PM 77.2 °F 37.0 °F 23% 29.85 in 10.0 mi SW 5.8 mph - N/A   Clear
9:58 PM 75.7 °F 38.3 °F 26% 29.85 in 10.0 mi WSW 4.6 mph - N/A   Clear
10:58 PM 71.1 °F 37.6 °F 29% 29.86 in 10.0 mi South 6.9 mph - N/A   Clear
11:58 PM 68.5 °F 37.0 °F 31% 29.86 in 10.0 mi SE 6.9 mph - N/A   Clear